Location: �chenoz-la-M�line
(47.6009°N, 6.1354°E)
Time: 11:22:55
(UTC+00:00)

In-Cosmos 22 Rocket - Pass Details

Date: 27 January 2021
Orbit: 789 x 889 km, 81.2° (Epoch: 02 March)

Event Time Altitude Azimuth Distance (km) Brightness Sun altitude
Rises 06:21:18 0° 344° (NNW) 3,378 7.0 -8.1°
Reaches altitude 10° 06:23:48 10° 339° (NNW) 2,426 6.2 -7.7°
Maximum altitude 06:29:02 49° 266° (W) 1,035 4.3 -6.9°
Drops below altitude 10° 06:34:08 10° 193° (SSW) 2,361 6.7 -6.1°
Sets 06:36:33 0° 187° (S) 3,279 7.5 -5.7°
